GFSNIL_sfc_thetae_000.txt.gz
Theta_e
300 300 299 297 296 294 295 294 294 293 294 295 295 295 295 295 295 293 291 290 291 292
294 295 292 291 293 293 293 294 294 295 296 297 297 296 294 292 291 292 292 291 290 291
292 292 292 292 291 291 293 295 296 297 297 297 295 294 293 292 290 290 290 291 290 290
291 291 290 290 291 291 292 294 294 294 294 293 293 292 291 289 289 289 288 288 288 288
290 289 288 289 290 291 291 292 291 291 291 291 291 290 289 288 288 286 285 286 286 286
288 287 288 288 289 290 290 290 290 290 289 290 290 289 288 287 286 286 286 285 285 285
287 287 287 288 288 289 289 289 289 289 290 289 288 287 286 286 284 283 283 283 283 283
290 290 289 288 289 291 290 289 289 288 287 286 285 286 284 283 281 281 281 282 282 282
293 293 292 292 292 291 289 288 286 284 284 283 285 287 287 285 281 281 281 280 280 281
294 293 292 292 291 287 285 283 282 282 281 281 281 286 286 285 282 281 280 280 279 280
292 290 289 286 285 282 282 281 280 280 281 280 282 285 285 284 281 280 280 280 280 280
286 286 285 283 281 281 280 279 279 280 280 280 280 283 283 282 278 278 279 281 281 281
286 284 283 281 280 280 278 279 279 280 279 280 277 281 282 281 280 278 278 279 280 282
285 283 282 280 279 278 278 277 272 271 274 276 278 277 281 282 279 278 278 278 279 280

GFSNIL_sfc_thetae_003.txt.gz
Theta_e
296 296 297 296 294 293 291 290 292 293 296 296 296 297 297 297 295 295 293 293 291 289
294 294 294 291 291 290 291 293 293 295 296 296 296 296 297 295 293 293 292 291 289 288
293 292 291 290 290 290 292 294 295 296 296 296 296 296 295 293 292 291 291 291 289 288
293 290 289 289 289 290 293 294 293 292 294 294 293 293 292 290 289 289 288 287 287 287
291 289 287 288 289 290 291 292 291 291 291 291 290 290 288 287 287 286 285 285 285 285
287 286 286 288 290 290 290 290 290 289 288 289 289 288 287 286 285 285 285 284 284 284
285 285 286 287 289 290 291 289 289 289 289 288 287 286 285 284 282 281 282 282 282 281
290 290 288 291 292 291 291 291 289 288 286 285 285 285 283 282 282 281 281 281 281 281
294 293 293 293 292 291 292 291 287 284 283 283 284 287 286 285 281 281 280 279 280 280
293 293 292 292 292 291 286 284 283 282 282 282 282 286 286 285 281 280 280 279 279 280
289 288 286 285 284 282 282 281 280 281 281 281 282 284 284 284 280 278 279 279 280 279
286 284 283 282 281 281 279 279 280 281 280 279 279 282 282 281 275 276 277 279 280 279
284 283 281 280 279 279 279 279 280 279 279 279 276 280 281 280 278 277 278 278 279 281
284 283 281 279 279 278 278 277 273 271 273 275 277 276 281 281 279 277 277 278 278 280

GFSNIL_sfc_thetae_006.txt.gz
Theta_e
295 294 295 295 294 292 290 290 292 293 294 294 294 294 295 294 295 295 294 292 292 291
294 294 295 294 290 290 290 293 293 293 294 294 296 296 295 293 292 291 291 291 291 291
293 294 294 291 289 289 290 293 293 293 293 293 293 293 294 294 294 292 292 292 290 290
294 293 291 288 288 289 291 292 291 292 292 292 293 293 292 291 290 289 289 288 287 286
290 288 287 287 288 289 289 289 289 290 290 290 289 289 288 287 287 286 285 284 284 284
286 284 285 286 288 289 289 290 290 290 290 290 289 288 287 285 284 284 283 283 283 283
286 285 286 289 289 290 290 291 291 291 289 288 286 286 285 285 283 282 282 282 281 281
292 291 290 290 290 291 291 291 292 291 287 285 285 285 283 282 282 281 280 281 281 281
294 294 292 292 291 291 291 291 291 287 282 282 283 287 286 285 282 282 281 279 280 280
290 291 290 291 290 288 285 283 281 281 281 282 282 285 285 285 282 281 280 279 279 280
287 285 284 283 282 281 281 280 280 280 281 280 280 283 283 282 280 278 278 279 279 279
284 282 282 281 280 280 279 279 279 281 279 278 278 281 282 281 277 276 276 279 279 279
282 281 279 278 278 279 278 279 279 278 278 278 276 279 281 280 277 276 277 278 280 280
281 280 279 278 278 277 277 277 273 271 273 275 276 276 280 281 279 278 278 278 278 279

GFSNIL_sfc_thetae_012.txt.gz
Theta_e
309 308 305 304 303 302 302 303 305 306 305 305 304 304 303 301 299 295 293 292 292 291
308 305 303 302 302 302 303 302 305 304 303 302 301 300 299 297 296 297 296 295 295 294
305 303 301 301 300 301 302 303 302 301 300 299 298 298 296 296 296 295 295 295 294 295
302 300 300 300 300 300 300 299 298 298 298 297 295 295 295 295 295 294 293 293 293 292
300 300 299 299 299 300 299 299 298 297 296 295 295 296 293 293 293 292 291 291 291 290
300 299 298 298 298 298 297 297 297 296 294 294 295 295 294 293 292 292 291 291 290 290
298 298 298 297 297 297 296 295 295 295 294 293 292 291 291 291 291 290 290 290 290 289
297 297 296 295 295 295 295 293 292 291 291 291 290 289 289 289 289 289 288 289 288 289
295 295 294 294 293 292 291 291 291 290 290 289 289 284 284 285 286 287 287 287 287 287
294 293 292 291 290 289 290 290 289 289 289 288 288 283 283 282 285 285 286 286 286 285
292 291 290 289 289 289 289 289 288 288 287 287 286 283 282 281 284 285 285 285 285 285
291 290 289 288 288 289 288 288 287 287 286 285 285 283 281 281 283 283 283 283 283 283
291 289 288 288 288 289 288 287 287 285 286 284 284 282 281 281 282 280 281 282 283 283
291 289 289 289 289 288 287 286 284 284 283 284 283 282 281 280 280 280 280 280 282 284

GFSNIL_sfc_thetae_015.txt.gz
Theta_e
311 309 307 305 303 302 302 304 304 305 306 304 304 302 300 298 296 295 296 295 294 293
308 307 304 303 302 302 303 303 304 304 303 301 299 300 300 299 298 298 297 297 296 295
306 305 303 302 301 301 302 302 301 301 300 299 298 298 298 296 297 296 297 297 296 295
304 303 302 301 301 300 300 300 299 299 298 297 296 296 296 295 296 294 294 294 293 293
302 301 301 300 298 299 298 299 299 299 296 296 296 296 295 295 294 293 292 293 293 292
300 300 298 298 297 297 297 296 297 297 296 295 295 293 292 292 292 291 291 291 290 290
299 298 297 297 297 296 295 294 293 293 292 292 292 291 291 291 290 290 290 290 290 290
298 297 296 296 295 294 293 292 292 292 292 292 291 290 289 288 287 287 287 288 289 290
297 295 295 294 293 292 292 291 291 291 291 290 289 285 284 284 285 285 285 286 287 288
296 295 294 292 291 291 290 291 290 290 290 289 289 284 283 283 284 284 285 286 286 286
295 294 292 292 290 290 290 290 289 289 289 288 287 285 283 282 283 284 284 285 285 285
294 293 291 290 290 290 290 289 288 288 287 286 286 285 283 282 282 282 282 283 284 284
293 292 291 290 290 290 290 288 288 287 286 285 285 285 283 282 282 280 281 282 282 283
294 292 291 290 290 289 289 288 287 286 286 285 285 284 283 282 281 281 281 281 282 284

GFSNIL_sfc_thetae_018.txt.gz
Theta_e
309 306 304 302 300 300 299 300 302 301 302 299 299 299 299 298 296 294 295 295 295 293
306 305 302 301 300 300 300 300 299 300 299 298 298 298 297 296 295 295 295 295 295 294
303 303 302 300 299 299 298 299 298 298 298 298 297 296 295 294 294 295 295 295 294 294
302 301 301 300 298 298 297 297 297 298 297 296 295 295 295 294 293 293 292 293 293 292
300 300 299 298 297 297 296 296 296 295 295 294 294 294 293 292 292 291 290 291 291 291
299 298 297 296 297 296 295 294 294 292 291 290 290 289 289 289 288 287 287 287 287 287
298 297 295 295 296 295 294 292 291 291 291 291 290 290 289 288 286 285 285 285 285 286
298 297 295 295 295 294 293 291 291 290 290 290 289 287 285 285 284 283 283 283 284 285
297 297 295 294 294 293 291 290 290 289 289 288 288 285 285 283 281 283 282 281 282 284
297 295 295 294 292 291 289 289 288 288 288 287 286 285 285 283 281 281 280 281 281 282
296 295 294 293 291 290 289 288 287 287 286 285 286 287 285 284 280 280 280 280 280 280
295 293 293 292 290 288 288 287 287 287 285 283 283 286 286 284 280 280 279 280 280 281
295 294 291 290 289 288 288 287 286 285 284 285 283 286 286 283 279 277 278 279 280 282
294 292 291 290 289 288 286 285 283 283 283 283 283 283 283 282 279 278 277 278 278 280

GFSNIL_sfc_thetae_024.txt.gz
Theta_e
299 297 296 295 294 294 293 293 293 293 295 295 296 295 293 292 290 290 289 288 289 290
298 297 296 294 293 293 293 295 293 292 293 294 294 293 292 290 289 289 289 289 290 290
295 295 295 293 293 293 292 293 292 291 292 292 292 292 291 289 289 289 288 289 287 287
294 294 294 293 293 293 292 292 291 292 291 288 288 288 287 287 287 286 284 283 283 283
293 293 293 292 293 292 291 292 292 292 288 288 286 286 285 284 284 283 282 283 282 282
292 292 292 291 291 292 292 291 292 289 288 288 287 286 284 284 283 281 281 281 281 281
292 293 291 290 292 293 294 292 291 288 288 288 286 285 284 283 281 280 281 281 281 280
293 293 291 291 292 293 292 292 291 289 288 286 284 284 281 281 281 280 280 280 280 280
292 292 292 292 292 290 292 291 287 287 286 284 285 286 285 283 280 280 279 278 279 279
291 291 291 291 291 291 287 287 287 285 284 282 282 286 287 287 282 280 278 278 278 279
291 290 290 288 289 288 286 286 284 283 282 281 283 285 285 284 280 278 279 279 278 278
290 289 289 289 288 285 284 282 283 282 281 280 280 284 283 281 277 277 277 278 278 278
289 288 288 287 285 285 283 283 282 282 280 281 278 281 282 280 276 272 276 277 277 278
287 287 287 287 286 284 281 280 278 277 278 278 278 277 280 279 276 275 276 275 276 277

GFSNIL_sfc_thetae_027.txt.gz
Theta_e
298 296 296 295 293 292 293 292 292 291 294 294 294 293 292 290 289 288 288 286 286 287
297 296 295 294 293 292 292 293 292 291 292 292 294 292 291 289 288 287 287 286 286 286
294 295 294 293 292 292 292 292 292 291 291 292 292 291 290 287 287 286 286 286 282 282
293 292 293 292 292 292 291 291 292 293 292 290 288 288 286 286 285 284 282 282 282 282
291 291 291 291 292 291 291 292 291 291 292 291 288 287 286 285 284 282 281 281 281 281
291 291 290 290 291 291 291 290 291 291 292 288 288 287 285 284 282 281 281 281 280 280
290 291 290 290 289 290 291 290 289 291 288 289 288 286 283 282 281 281 281 281 280 280
291 291 291 291 291 291 290 290 292 290 288 287 286 284 282 282 281 280 280 280 280 280
290 290 289 289 289 289 292 289 288 288 286 283 284 286 286 285 281 281 280 279 279 279
290 289 289 288 288 288 287 286 285 284 282 281 282 286 285 284 281 280 279 278 278 278
288 288 288 287 288 288 287 283 282 281 281 280 282 284 283 282 278 277 277 277 277 277
287 287 287 286 285 285 283 281 281 282 280 279 278 281 281 280 276 276 276 277 277 278
286 286 285 285 284 286 284 282 282 281 279 280 277 280 280 279 274 270 275 276 277 278
284 283 283 283 283 282 280 280 278 278 277 278 277 276 279 279 274 275 275 275 275 277

GFSNIL_sfc_thetae_030.txt.gz
Theta_e
297 296 295 294 293 292 291 292 292 291 291 292 293 292 293 290 289 289 288 286 285 286
296 295 294 294 292 292 292 293 292 291 290 291 292 294 293 291 289 287 287 286 286 285
293 292 292 292 292 292 291 291 291 291 292 292 291 290 291 290 289 287 286 286 283 282
291 291 290 290 291 291 291 291 291 291 290 289 289 290 287 287 286 285 283 282 282 282
290 290 290 289 289 290 290 290 290 290 289 290 291 289 286 285 285 282 281 281 281 281
289 289 288 288 288 289 289 289 289 289 291 291 288 286 287 284 282 281 281 281 280 280
289 289 288 288 288 289 289 289 288 291 290 289 287 287 284 282 281 281 281 281 281 280
289 289 288 288 288 288 288 289 289 289 288 285 284 283 282 282 282 281 280 280 281 281
289 289 288 287 287 287 288 289 288 286 284 281 283 286 286 284 280 280 280 278 279 279
288 288 287 287 286 286 286 283 283 282 281 280 281 285 284 283 280 278 277 277 276 277
286 286 286 285 288 285 285 286 281 280 280 280 281 282 282 282 278 276 277 277 276 276
285 284 284 284 283 284 284 283 281 281 280 278 277 281 281 279 276 276 276 277 277 277
284 283 282 282 282 283 283 282 281 280 279 280 277 279 280 279 274 270 275 276 277 278
283 282 282 280 281 282 280 280 278 277 278 278 278 276 279 280 275 275 276 275 275 277

GFSNIL_sfc_thetae_033.txt.gz
Theta_e
307 306 304 303 302 302 301 301 302 301 300 299 299 300 300 299 298 299 297 296 295 294
303 303 303 302 301 301 301 300 300 301 300 299 299 299 299 297 296 297 296 295 295 294
301 300 300 300 299 299 299 300 299 299 300 299 298 297 295 294 294 293 294 293 292 291
298 298 298 297 298 298 298 298 297 297 297 297 294 295 295 294 292 290 291 290 289 288
297 297 297 296 296 296 295 296 295 296 295 295 294 293 292 290 291 290 288 287 287 287
296 296 295 294 295 295 295 295 296 295 295 293 290 291 291 290 288 287 287 287 286 286
295 295 294 294 294 294 294 294 294 294 293 291 291 290 289 287 287 287 287 286 286 285
295 294 294 293 293 293 293 293 293 291 291 289 288 287 288 288 287 285 284 284 283 282
293 293 293 292 292 292 292 291 291 290 288 287 287 286 285 285 285 283 282 281 281 281
292 291 291 291 291 291 291 290 290 288 287 286 287 283 283 283 283 281 281 280 280 279
291 290 290 290 289 290 291 291 289 286 286 285 283 282 281 281 282 281 280 280 280 280
290 289 288 288 288 289 289 289 287 286 285 283 282 280 281 281 281 280 280 280 280 280
290 288 288 287 287 288 290 289 287 285 284 281 282 279 280 281 282 280 279 280 280 278
289 288 288 287 287 287 287 286 285 283 283 282 281 281 279 280 281 280 279 278 278 278

GFSNIL_sfc_thetae_036.txt.gz
Theta_e
309 310 309 308 307 306 305 304 304 303 303 302 302 303 303 302 301 300 299 297 296 294
310 308 307 305 305 303 302 300 301 301 300 300 301 302 302 301 300 299 298 296 295 293
307 305 304 304 301 300 300 300 300 299 299 299 300 301 301 299 298 298 296 295 293 293
303 302 303 302 300 300 300 299 298 298 298 298 298 298 297 296 296 295 293 293 292 292
301 301 301 299 299 299 298 298 298 298 297 297 295 296 295 294 294 292 291 292 292 291
300 300 299 298 299 298 297 297 297 297 294 294 295 294 293 292 292 292 291 291 290 290
299 299 299 298 298 297 297 296 296 296 295 294 294 293 292 291 291 291 290 290 289 288
299 298 297 297 296 296 296 296 296 294 294 294 292 291 291 291 290 290 288 288 286 286
297 296 296 296 295 295 295 295 295 294 293 292 291 285 284 285 288 288 286 285 285 285
295 295 294 294 294 294 294 295 293 292 293 291 291 283 283 282 286 286 285 284 284 283
294 293 293 293 293 293 294 293 292 291 291 291 289 282 281 281 286 286 285 284 284 284
293 293 293 292 292 292 292 292 291 291 291 290 289 281 281 282 285 285 284 284 284 283
293 293 292 292 292 292 292 291 290 290 290 287 287 281 280 281 285 283 283 284 283 281
292 292 292 292 292 291 291 290 290 288 289 288 287 286 280 280 283 283 282 282 282 282

GFSNIL_sfc_thetae_039.txt.gz
Theta_e
311 309 309 308 307 306 305 304 304 303 302 301 301 301 302 302 303 302 301 299 298 296
310 308 307 306 306 304 304 302 301 301 300 300 300 300 300 300 301 301 300 299 297 296
308 307 305 305 303 302 302 301 300 299 299 299 299 299 299 299 299 298 298 296 295 294
306 304 303 303 302 300 301 300 298 298 299 298 298 299 298 298 297 295 295 295 294 293
304 303 302 301 300 300 299 299 298 298 298 298 297 297 295 294 293 293 292 292 292 291
302 302 301 299 299 300 299 298 298 297 297 296 295 294 294 294 293 292 291 291 290 290
301 301 300 299 299 299 298 297 297 297 296 295 294 294 293 292 291 291 291 291 290 289
300 300 299 298 298 298 297 297 297 296 295 294 294 292 291 291 290 289 289 289 288 288
298 298 298 297 297 296 296 296 296 295 294 293 292 285 284 285 288 288 288 287 287 287
297 296 296 296 295 295 295 295 295 293 292 292 292 285 283 283 286 287 287 287 286 285
296 295 295 295 294 295 295 294 294 293 292 291 291 284 283 282 285 287 287 287 286 285
295 294 294 293 294 294 294 293 293 293 291 291 291 284 282 281 286 286 286 286 286 285
294 293 293 293 293 294 293 292 292 291 292 290 290 284 283 282 285 284 284 285 285 283
293 293 293 293 293 293 292 292 290 289 290 289 289 288 283 282 283 284 283 283 283 284

GFSNIL_sfc_thetae_042.txt.gz
Theta_e
312 309 308 309 306 303 302 301 301 300 299 299 298 297 297 296 296 296 296 294 295 295
309 308 306 304 304 302 301 300 299 299 297 297 297 297 297 295 295 295 295 294 293 292
308 306 305 304 303 300 299 299 298 297 296 297 297 297 296 295 295 293 293 293 292 292
305 304 303 302 300 299 298 298 297 296 296 296 295 295 293 293 293 292 291 291 290 290
304 303 302 301 299 298 297 298 296 296 296 296 294 293 292 292 292 290 289 289 289 289
303 301 301 299 298 298 297 296 296 296 295 294 294 292 292 291 291 290 289 289 288 286
302 301 299 298 297 297 297 296 295 296 296 294 293 293 293 292 289 288 287 287 286 286
301 300 299 298 297 297 296 296 296 295 295 293 293 292 289 288 286 286 285 286 286 285
299 299 297 296 297 296 296 295 295 294 293 291 292 286 286 285 283 285 284 283 284 284
298 297 296 296 295 294 294 294 293 293 292 291 291 286 285 283 283 283 283 283 282 283
296 295 295 294 294 294 294 293 292 291 291 290 291 286 285 283 281 282 283 283 283 282
294 294 293 293 293 293 292 291 290 291 290 289 288 285 284 282 281 282 282 283 283 283
294 293 292 292 292 292 292 291 290 289 289 289 286 285 284 283 281 280 281 281 282 281
293 292 292 292 291 290 290 289 288 286 287 286 287 287 285 284 281 280 280 279 279 280

GFSNIL_sfc_thetae_045.txt.gz
Theta_e
305 303 303 303 302 301 300 299 296 296 295 294 294 294 293 293 292 292 291 291 292 293
303 303 301 301 302 300 299 298 297 296 293 293 294 294 293 292 291 291 291 290 289 289
303 301 302 300 300 299 298 297 296 293 293 293 293 293 291 291 291 290 289 289 288 289
300 302 303 301 299 298 296 296 294 293 293 293 293 292 290 290 290 289 288 288 288 287
303 303 301 300 297 297 296 295 293 294 293 294 292 290 290 290 290 289 288 288 287 286
303 302 299 299 298 295 294 293 293 294 293 293 291 290 290 290 289 288 287 286 285 284
301 300 298 296 296 294 294 293 294 293 294 294 292 291 292 290 287 286 285 285 284 284
301 298 297 296 295 295 294 294 294 293 293 292 291 291 288 287 285 284 283 284 284 283
298 296 296 295 295 294 294 293 293 292 292 291 291 288 288 286 283 283 282 281 282 282
297 296 295 294 293 292 291 291 291 291 291 290 288 288 287 285 282 281 281 280 281 281
294 294 293 292 292 291 292 291 290 289 290 289 290 287 287 285 281 281 281 281 281 280
293 292 292 291 291 291 290 290 289 289 288 288 287 287 286 283 281 281 280 282 281 281
293 292 291 291 290 290 290 290 289 288 287 288 284 286 286 284 280 279 280 280 280 281
293 292 291 290 289 289 288 287 286 285 285 285 285 283 287 286 280 280 279 279 278 279

GFSNIL_sfc_thetae_048.txt.gz
Theta_e
306 305 305 304 303 301 299 298 297 297 296 295 294 292 292 291 291 290 289 289 289 290
302 302 301 301 301 300 299 298 296 294 294 294 292 293 291 290 289 289 288 288 288 287
305 304 302 301 300 299 298 296 296 295 294 292 292 293 291 290 289 288 287 288 287 287
302 304 304 301 300 297 298 297 295 293 292 292 292 292 290 289 289 288 287 287 286 286
303 304 302 300 299 299 297 296 294 294 293 293 292 290 289 289 289 288 287 287 286 285
304 302 301 299 298 298 295 293 292 293 292 292 292 290 289 289 289 288 286 285 284 283
303 301 298 298 294 293 293 292 291 292 293 292 292 291 292 291 289 286 285 286 285 284
302 298 297 295 294 293 293 292 292 293 292 293 292 292 290 288 286 285 284 284 284 284
297 297 296 294 293 294 293 292 292 292 292 291 291 290 289 287 284 284 283 281 282 282
296 295 294 293 293 291 291 291 291 290 290 290 290 289 289 288 283 282 281 281 281 281
294 293 293 292 292 291 292 290 290 289 289 288 290 289 289 287 281 280 281 281 282 280
292 292 292 292 291 291 289 289 289 289 287 286 287 289 288 285 280 280 281 283 282 280
293 293 292 291 289 289 288 287 287 286 286 287 285 287 288 286 279 279 280 281 280 283
293 291 289 288 287 287 286 285 284 284 284 284 284 283 288 287 280 280 280 280 279 279

GFSNIL_sfc_thetae_051.txt.gz
Theta_e
309 307 306 305 302 299 298 297 296 298 297 296 295 295 294 291 289 288 288 288 287 288
307 305 302 301 301 299 298 298 297 296 295 295 295 294 290 289 288 288 288 288 287 286
303 303 302 302 300 298 298 296 296 296 296 294 294 292 290 288 288 288 287 288 287 286
303 302 302 300 298 297 297 297 298 296 294 293 292 291 289 288 288 288 288 287 286 285
303 301 299 298 297 299 299 298 296 295 293 293 291 290 290 289 288 287 287 287 285 285
301 300 298 299 300 299 296 296 294 293 292 291 291 291 289 288 288 287 287 286 284 284
302 301 301 300 298 295 293 293 292 292 292 292 292 291 290 290 289 288 287 285 284 284
302 300 298 296 293 293 294 293 293 292 292 291 291 291 289 289 286 285 284 284 284 283
297 296 296 295 294 293 293 293 292 292 291 290 290 290 290 288 284 284 282 282 281 282
296 295 294 293 292 292 292 292 291 290 290 289 288 290 290 289 283 282 281 280 280 281
293 292 293 293 293 293 293 290 289 288 288 287 288 289 290 288 283 281 281 280 282 282
293 292 292 293 292 291 289 288 287 287 286 285 285 288 289 287 282 280 280 281 281 282
293 294 293 291 289 288 287 286 285 284 284 286 284 287 289 287 280 279 280 280 281 284
294 291 290 287 286 285 284 283 282 283 283 283 283 284 288 288 281 281 280 280 280 280

GFSNIL_sfc_thetae_057.txt.gz
Theta_e
316 317 317 313 310 310 310 308 306 304 303 301 300 298 297 296 295 296 299 298 297 297
317 317 315 310 311 312 311 305 302 301 301 301 300 298 296 296 294 295 297 297 297 296
318 318 315 312 311 308 305 302 300 301 301 300 299 299 298 295 294 294 296 296 296 296
319 318 314 310 307 304 300 300 299 300 300 300 297 296 295 294 294 295 296 295 295 295
317 313 310 306 303 301 299 300 301 301 298 296 295 294 293 294 295 295 294 295 294 294
310 308 306 303 301 301 301 301 301 297 296 297 296 296 297 297 296 295 295 295 294 294
306 305 304 303 301 301 302 299 297 296 295 296 295 295 297 296 296 296 295 295 294 294
304 302 302 302 301 297 297 296 296 296 295 295 295 295 295 296 296 295 295 295 294 294
301 300 298 297 296 296 296 295 294 294 294 294 294 292 291 292 296 295 293 293 294 293
297 296 296 294 294 293 293 297 296 294 294 293 296 291 291 290 294 294 294 293 292 291
294 293 296 296 296 296 296 295 296 294 295 294 293 289 289 289 294 294 293 293 292 291
295 295 296 295 294 295 295 294 294 293 293 292 292 289 288 288 292 291 291 292 291 291
297 296 295 294 293 294 294 292 291 291 291 290 290 289 288 288 291 290 290 291 291 287
292 292 293 292 292 291 291 290 290 289 290 290 290 290 288 288 289 290 290 289 289 290

GFSNIL_sfc_thetae_063.txt.gz
Theta_e
333 332 331 325 323 324 324 324 324 322 315 311 312 311 311 306 301 303 301 299 299 298
335 333 332 330 328 323 325 320 316 313 311 310 310 305 304 300 302 300 298 299 299 297
332 330 330 328 325 324 323 318 313 311 310 305 303 301 302 301 298 297 298 297 296 298
328 326 325 324 322 322 322 319 314 311 303 302 301 302 302 298 296 295 295 296 298 299
326 324 322 321 321 320 314 309 306 303 302 302 301 300 297 295 296 295 295 298 300 300
322 321 313 308 306 304 303 302 301 302 301 301 298 296 296 296 296 297 299 300 300 300
311 308 305 303 302 301 301 301 301 301 298 298 297 296 296 297 298 299 299 301 300 299
306 305 304 303 302 302 302 301 299 298 297 297 297 297 297 298 297 298 298 300 300 300
305 303 303 302 300 300 299 299 298 298 297 296 297 293 293 294 295 297 298 298 299 300
305 304 304 304 302 300 300 298 296 295 295 296 298 293 293 292 298 297 297 297 297 297
305 303 303 302 302 300 297 296 297 297 298 299 300 295 293 290 295 295 295 296 296 297
304 302 302 300 299 300 298 298 299 300 299 298 298 292 290 290 293 293 293 294 294 294
303 302 301 300 300 300 301 298 298 296 296 291 294 289 289 290 292 290 291 291 292 290
300 299 300 299 298 297 296 295 295 294 295 295 293 292 288 287 287 287 285 286 287 289

GFSNIL_sfc_thetae_066.txt.gz
Theta_e
328 329 326 326 325 323 322 322 321 319 317 315 313 312 310 305 301 301 302 300 298 298
330 328 328 328 326 323 323 323 321 319 314 310 310 309 304 301 300 300 298 297 298 297
330 331 330 328 325 324 323 317 315 311 310 309 305 302 301 301 299 298 297 297 297 296
331 328 326 323 322 322 320 318 314 312 307 303 300 301 300 298 296 295 295 296 296 295
328 325 322 319 318 318 314 313 309 306 302 301 301 301 297 296 296 295 294 295 296 297
322 319 311 308 307 306 305 304 303 302 301 301 299 297 297 296 296 296 296 297 298 298
308 306 304 303 304 302 302 302 301 301 299 297 297 297 297 297 297 297 299 299 298 299
306 304 303 302 302 302 301 301 299 298 297 297 297 297 297 297 298 297 297 297 298 297
303 303 302 302 300 299 298 298 297 296 296 296 297 294 294 295 296 295 295 294 296 296
304 302 301 301 299 298 297 298 297 296 296 295 296 293 293 292 295 294 293 292 292 293
304 303 302 301 301 299 297 295 295 295 296 297 298 294 293 291 292 291 291 291 291 290
303 302 301 299 297 297 297 297 297 298 297 297 292 290 289 289 289 289 288 290 289 288
303 301 299 299 298 298 299 298 298 295 294 291 288 288 287 287 284 283 282 283 285 286
301 300 300 299 299 298 294 294 290 290 290 291 289 286 285 285 281 280 280 280 280 281

GFSNIL_sfc_thetae_069.txt.gz
Theta_e
321 320 319 317 318 321 322 321 318 315 313 312 311 310 310 307 302 302 300 300 299 298
322 322 320 320 320 322 321 318 317 316 312 310 309 308 306 303 301 301 300 298 298 297
323 323 323 322 319 319 320 317 315 314 312 310 307 304 303 300 300 299 298 298 297 297
322 323 322 321 321 321 319 316 313 312 310 306 303 302 301 299 298 297 296 297 297 296
321 322 321 321 322 318 316 314 312 308 305 303 301 301 299 297 297 296 296 296 295 295
318 320 319 313 312 311 309 307 306 305 303 301 300 298 297 297 297 296 296 296 296 296
309 307 307 306 305 303 304 303 302 302 300 298 298 298 297 297 296 297 297 298 298 298
304 305 304 302 302 301 301 300 300 298 298 298 297 297 297 297 296 297 297 297 297 297
302 302 301 300 300 299 299 298 298 297 296 296 297 293 294 296 296 296 295 293 293 293
302 301 300 300 299 297 297 297 296 296 296 295 296 293 294 292 293 291 290 290 289 290
301 300 299 299 298 297 296 294 293 295 295 296 296 292 292 290 290 289 288 287 286 285
301 300 300 298 296 294 293 294 295 296 295 292 288 289 288 288 285 285 283 284 283 283
301 299 296 294 294 295 295 296 296 294 290 288 285 287 287 285 281 279 279 280 281 283
299 297 297 296 295 295 293 290 287 286 287 285 284 284 284 283 279 278 279 278 278 278

GFSNIL_sfc_thetae_075.txt.gz
Theta_e
315 315 314 314 315 314 314 315 318 319 320 320 317 316 314 313 312 309 308 306 305 305
316 315 315 314 312 314 313 315 317 320 320 317 313 314 313 311 308 307 306 304 304 304
317 317 317 315 313 312 314 315 316 315 313 312 312 310 310 308 306 306 304 303 302 300
314 314 316 316 314 315 316 316 316 316 315 312 310 309 308 306 304 303 301 300 300 299
318 317 317 317 317 317 318 318 318 319 319 313 310 309 307 303 303 302 301 299 298 298
319 318 318 317 318 318 319 319 320 316 313 311 309 306 304 303 301 300 300 299 298 297
318 318 318 318 318 319 320 317 313 313 311 306 303 302 301 301 300 299 298 298 297 297
312 312 312 314 316 312 311 310 308 305 302 301 300 301 300 299 298 297 296 297 298 298
308 307 305 304 303 302 302 302 301 300 299 298 299 296 295 297 297 297 296 295 293 290
305 303 302 302 301 300 301 300 298 297 298 297 296 293 294 293 296 294 292 289 288 286
304 302 301 300 299 298 297 296 296 296 296 296 295 292 292 291 290 287 285 284 283 282
302 300 299 298 296 296 296 296 296 296 296 295 294 290 289 288 285 283 281 281 281 280
301 300 298 296 295 296 297 296 296 291 290 290 289 289 288 285 282 280 279 279 279 281
300 298 297 296 295 295 295 291 286 284 284 284 285 285 285 284 279 279 278 278 277 277

GFSNIL_sfc_thetae_081.txt.gz
Theta_e
319 318 318 318 320 319 321 321 322 323 324 324 324 324 324 324 323 322 321 319 318 316
317 318 318 318 319 320 320 319 320 322 322 323 324 324 324 323 322 321 321 320 319 313
318 319 319 319 319 319 320 320 320 320 321 322 323 323 323 321 322 320 318 317 315 314
318 319 320 319 319 319 321 321 320 320 321 321 322 322 320 319 316 315 315 312 309 309
318 319 318 317 319 321 321 321 319 320 320 321 320 318 315 316 314 311 310 309 308 309
315 315 315 316 318 321 321 320 319 319 319 320 320 319 315 315 313 311 310 310 307 305
314 316 315 315 318 320 320 320 320 320 318 320 320 318 316 314 312 310 308 306 305 303
317 317 318 319 319 320 320 320 321 320 320 320 316 312 310 309 306 305 302 300 300 299
317 318 318 319 319 318 317 319 319 318 315 309 307 300 298 302 302 300 299 293 293 291
317 317 318 318 314 314 314 309 307 304 303 301 300 294 295 295 300 297 293 290 288 287
316 314 309 308 307 303 302 301 300 299 298 297 294 292 292 291 292 289 288 287 286 285
310 307 306 304 300 299 298 298 297 297 296 293 290 289 288 288 286 284 283 283 284 283
307 305 302 299 298 298 297 293 292 291 291 289 288 288 287 286 284 282 281 281 281 282
301 299 298 297 296 293 290 287 286 284 285 286 286 286 286 285 283 282 280 279 279 280

GFSNIL_sfc_thetae_084.txt.gz
Theta_e
324 322 320 319 317 321 322 323 325 327 327 328 328 328 329 329 328 328 327 326 326 325
324 324 324 324 323 324 326 324 326 327 328 328 329 329 329 327 327 328 328 328 327 325
323 324 324 325 324 325 326 326 326 326 327 327 327 327 327 327 328 327 328 328 325 323
324 323 324 325 325 325 327 326 325 325 325 324 324 325 326 327 327 326 325 325 321 321
325 324 324 325 326 327 326 326 325 324 323 323 323 324 324 324 325 323 321 318 317 314
324 324 325 325 326 326 325 325 324 323 323 322 322 322 323 324 323 321 317 319 314 313
323 323 324 324 324 323 323 322 323 323 322 322 322 321 322 322 321 320 318 316 314 312
322 322 322 322 323 321 321 322 323 323 323 324 322 323 323 323 320 319 316 310 307 304
321 321 321 321 321 321 321 322 322 322 323 324 323 306 300 310 314 307 303 296 294 292
321 320 321 321 321 321 322 322 321 323 323 319 310 295 295 296 302 298 293 290 290 288
320 320 321 320 320 321 319 316 310 304 301 300 295 292 292 291 291 289 289 288 287 286
320 320 320 317 315 311 304 301 299 299 296 293 290 289 289 288 286 285 284 285 285 285
318 315 313 307 301 299 297 294 293 290 290 288 288 288 288 287 285 283 282 283 283 283
311 305 301 298 296 293 290 288 286 285 285 286 287 286 287 286 284 282 281 280 280 282

GFSNIL_sfc_thetae_087.txt.gz
Theta_e
321 318 319 320 317 314 315 317 322 327 326 326 327 327 328 328 329 330 329 329 327 326
322 323 321 320 319 316 316 316 318 327 325 327 328 329 329 328 329 330 330 330 329 327
324 324 325 324 321 322 319 321 323 325 327 327 328 330 329 328 329 328 329 329 328 328
323 326 327 326 325 325 323 324 325 325 326 327 328 329 327 328 328 326 327 327 327 326
323 324 324 327 328 328 326 327 326 326 326 326 326 327 326 326 325 325 325 325 325 324
327 326 326 327 329 329 328 327 327 326 326 326 326 326 326 325 325 325 325 324 324 322
328 328 328 328 326 326 326 326 326 327 327 327 326 325 324 323 324 324 324 324 321 320
328 327 327 328 328 326 324 326 327 326 326 326 325 324 325 324 323 323 322 320 316 311
325 325 327 327 327 327 327 326 326 325 325 325 323 307 302 310 323 319 315 300 295 293
323 323 325 324 323 324 324 325 324 324 324 323 324 297 297 297 305 300 295 292 290 289
323 322 322 322 322 324 324 323 321 319 316 308 298 295 295 293 293 290 289 288 288 287
324 323 323 323 323 324 322 310 305 302 297 293 290 290 289 289 288 286 285 286 286 286
324 323 323 323 314 309 304 296 293 290 290 289 288 288 288 288 286 284 283 283 283 284
322 321 312 304 300 295 291 290 288 286 286 286 287 287 287 287 285 283 282 281 281 282

GFSNIL_sfc_thetae_090.txt.gz
Theta_e
316 315 315 314 314 314 314 315 318 319 320 320 321 322 322 321 321 321 320 319 320 319
318 316 316 315 316 315 315 316 317 319 319 321 321 322 321 320 321 321 322 322 322 321
320 319 318 318 315 316 315 315 316 318 319 319 320 322 322 321 321 321 322 323 322 321
320 320 318 318 319 317 316 315 315 316 317 319 320 321 321 322 321 322 321 322 320 320
321 321 320 319 319 320 318 317 316 316 316 317 320 321 320 321 321 320 319 319 319 319
321 321 321 321 321 321 320 318 318 316 316 319 320 320 321 321 320 320 320 319 318 318
320 321 322 323 323 323 322 321 319 318 319 319 320 321 321 321 320 319 319 319 319 318
322 322 322 322 323 324 324 323 322 321 321 321 321 321 320 320 319 318 317 316 314 304
324 324 322 322 322 322 322 323 322 321 321 320 321 307 303 311 316 316 312 302 294 293
323 323 323 324 324 322 321 321 321 321 321 320 319 296 297 296 307 301 296 293 291 289
322 322 322 322 322 322 322 321 320 319 319 305 296 292 292 291 292 290 290 290 288 287
322 321 321 320 320 320 319 319 310 302 299 293 290 290 290 290 288 287 287 287 287 286
323 321 319 319 317 307 300 295 292 290 289 289 288 289 290 288 286 284 284 283 283 284
314 313 306 300 297 295 291 289 287 285 286 286 286 287 288 287 285 284 282 282 281 282

GFSNIL_sfc_thetae_093.txt.gz
Theta_e
314 314 313 311 312 312 311 311 314 315 317 317 317 318 318 319 319 318 317 317 317 316
314 314 313 312 311 313 313 313 315 315 315 316 319 319 319 319 318 318 318 318 317 316
315 315 314 314 311 313 313 314 314 316 316 316 317 319 319 318 318 318 317 319 318 317
317 316 315 315 313 315 314 315 315 315 315 315 317 319 318 317 317 318 318 318 316 318
319 318 315 315 315 314 314 314 315 315 316 316 317 317 318 318 318 317 317 317 315 317
319 318 316 315 316 316 315 313 314 314 314 315 317 318 318 318 317 317 318 318 316 317
318 319 318 316 316 317 317 315 313 313 313 313 314 316 318 318 317 317 318 317 317 317
318 318 319 319 318 317 317 317 316 315 314 313 313 314 316 317 317 317 316 315 310 300
318 318 319 319 320 319 318 318 317 316 315 314 315 306 302 310 317 315 314 302 295 293
319 318 318 319 319 319 319 320 319 318 318 316 315 302 301 300 313 308 303 297 292 290
320 319 319 319 318 318 318 318 319 319 319 312 297 293 293 293 295 292 292 291 290 288
320 320 320 319 319 319 319 317 312 303 299 295 291 290 290 293 291 288 287 287 287 287
319 319 319 318 314 302 303 294 292 289 290 289 288 289 289 289 287 284 283 284 284 285
317 318 313 303 299 295 291 289 286 285 286 287 287 288 288 288 286 283 282 282 282 283

GFSNIL_sfc_thetae_099.txt.gz
Theta_e
311 312 312 312 313 313 313 314 315 315 316 315 315 316 315 314 314 313 312 311 311 312
310 311 311 311 312 312 314 314 314 316 316 316 316 315 314 314 313 315 314 313 313 312
310 311 311 313 312 311 312 313 313 313 315 315 315 315 314 313 314 314 315 315 314 313
310 310 311 311 311 310 311 312 312 312 314 313 313 313 313 313 313 314 314 314 314 314
311 311 310 310 311 312 310 311 313 313 312 313 313 313 313 312 313 313 313 314 313 314
310 311 310 310 311 312 311 311 312 313 312 312 313 313 313 313 313 313 313 314 314 314
311 311 312 312 312 312 313 311 310 312 313 312 312 313 313 314 313 314 314 315 315 315
313 313 312 313 313 312 312 312 311 311 311 312 311 311 311 312 312 312 312 312 315 315
316 315 314 313 314 313 312 312 312 311 311 310 311 302 300 306 310 309 310 310 310 300
315 314 317 316 315 313 313 313 311 311 310 310 310 299 298 298 310 310 310 310 305 296
314 314 314 317 316 315 314 313 313 311 310 310 309 299 298 296 305 306 301 304 303 299
316 315 314 314 315 316 315 314 314 314 313 311 310 298 297 297 300 292 289 289 291 291
308 316 315 315 314 315 316 315 314 310 301 303 311 292 294 298 295 287 285 285 286 287
296 300 304 315 315 315 314 299 294 289 288 288 290 290 291 292 292 287 284 283 283 284

GFSNIL_sfc_thetae_102.txt.gz
Theta_e
310 311 311 312 313 313 314 315 317 318 315 315 316 315 314 314 312 312 311 310 311 312
310 311 311 311 312 313 315 315 315 317 315 316 315 315 314 312 313 312 312 310 311 312
309 309 309 310 310 313 314 315 315 315 315 315 315 314 314 314 314 312 312 313 312 312
308 309 309 310 310 311 313 313 314 315 314 314 314 315 314 313 313 312 312 313 313 313
309 309 309 309 310 311 310 313 314 314 315 315 314 314 314 313 313 312 312 313 313 313
308 309 308 308 309 310 309 310 312 313 313 313 313 313 313 313 313 312 312 313 313 313
309 309 309 309 308 309 309 310 310 312 312 312 312 313 313 313 312 312 312 312 312 313
309 310 310 309 308 309 309 309 311 311 311 311 311 312 312 313 312 312 311 312 312 313
313 310 310 310 309 308 310 310 311 310 310 309 310 302 300 306 311 311 310 310 310 311
314 313 311 310 311 311 310 311 310 310 310 310 310 298 299 298 310 309 309 310 308 302
315 315 315 313 312 312 312 311 310 310 310 310 310 298 297 295 306 306 306 307 307 304
312 314 314 314 314 314 312 312 312 311 310 309 309 297 297 296 303 303 297 296 297 301
299 304 309 313 314 315 314 312 312 310 307 303 308 298 297 297 305 297 288 286 287 289
291 294 295 299 309 312 312 305 294 287 287 287 287 288 290 292 302 294 285 284 284 285

GFSNIL_sfc_thetae_105.txt.gz
Theta_e
319 319 319 318 317 317 319 319 323 321 318 316 315 315 314 314 315 315 317 317 317 317
318 319 319 318 316 316 319 319 322 321 318 315 315 315 313 313 314 314 315 315 316 316
317 319 319 318 314 316 319 319 320 318 316 315 316 314 314 313 314 314 313 313 312 314
315 317 318 317 317 317 319 318 317 317 315 315 315 314 312 311 312 312 312 312 312 312
314 316 316 316 317 319 317 317 317 316 315 315 315 314 312 310 311 312 311 311 312 312
312 314 315 316 317 317 318 315 317 316 314 314 315 313 313 312 311 311 313 312 312 312
311 314 315 316 316 316 317 317 315 315 315 315 315 314 313 314 313 312 312 313 313 313
312 312 314 315 315 315 315 316 316 316 316 315 314 314 313 313 313 313 312 313 313 314
312 312 313 314 314 315 315 315 315 314 315 316 316 302 301 308 312 312 311 311 312 312
312 312 313 314 314 314 314 315 314 314 313 313 315 298 299 299 317 314 313 312 312 311
314 313 313 313 314 314 314 313 313 313 312 312 311 297 297 296 316 316 316 317 317 316
304 310 314 312 312 315 314 313 312 312 311 311 311 297 296 297 308 311 310 313 315 316
295 297 298 300 310 314 314 313 312 301 292 290 299 290 294 297 306 302 297 288 287 288
290 291 292 294 294 296 308 293 288 286 286 287 287 289 291 292 300 291 286 285 284 285

GFSNIL_sfc_thetae_111.txt.gz
Theta_e
329 330 331 331 330 328 327 328 326 324 323 322 322 323 320 318 318 318 317 317 317 317
328 328 329 333 332 328 327 326 327 326 324 323 321 322 320 318 317 317 317 318 318 317
324 329 330 332 328 327 325 326 325 323 321 320 318 318 318 318 318 317 317 318 316 317
322 326 328 329 327 326 325 325 325 325 322 320 318 317 315 316 316 316 316 317 316 316
321 324 326 326 324 325 325 325 324 324 321 319 317 316 314 313 314 314 314 315 315 315
319 322 323 323 322 322 324 322 323 321 321 318 316 315 315 314 313 313 314 315 314 314
319 321 321 321 322 320 322 321 320 320 320 318 316 315 314 313 312 313 313 314 314 313
318 319 321 319 320 320 321 321 320 319 319 320 318 316 315 314 312 312 312 312 313 313
316 318 320 319 318 318 320 321 320 318 318 317 317 301 301 309 312 311 311 310 311 312
314 316 317 317 317 318 317 319 319 320 320 318 320 299 299 299 315 312 312 311 311 310
315 315 315 316 316 317 318 317 317 317 318 319 318 297 297 296 315 314 314 313 313 312
304 309 315 314 316 317 317 317 316 317 318 317 307 292 294 299 314 312 312 312 313 312
295 297 298 299 303 307 316 311 300 294 292 289 297 289 291 298 310 304 295 290 288 288
289 291 292 294 295 296 293 290 288 286 285 286 287 289 290 292 306 296 287 286 285 286

GFSNIL_sfc_thetae_114.txt.gz
Theta_e
331 329 328 330 330 327 326 327 329 328 326 324 324 322 320 320 318 318 317 316 317 318
327 328 327 331 329 328 327 327 327 327 324 323 322 321 320 318 317 317 317 317 318 317
324 326 328 329 327 327 327 325 325 324 322 321 321 320 319 318 318 316 317 317 317 317
323 325 327 327 326 326 326 325 325 323 322 321 319 319 318 317 317 316 316 316 316 316
323 324 325 325 325 324 323 324 324 322 320 319 317 317 317 316 316 315 315 315 316 315
320 321 322 323 322 323 323 322 321 323 320 318 317 316 315 315 315 315 316 316 315 315
317 319 320 321 321 321 321 320 319 322 319 317 316 315 314 314 313 314 314 315 316 315
318 319 320 319 319 320 320 319 319 319 318 317 316 315 314 313 312 312 312 313 314 314
317 317 318 318 318 319 318 318 318 316 317 316 316 301 301 309 312 312 311 310 311 310
316 316 317 317 317 317 317 318 317 316 316 315 315 299 299 300 313 311 310 310 310 309
314 315 317 316 316 316 317 316 317 316 316 316 308 296 297 296 313 311 310 310 310 310
298 313 315 315 315 316 315 315 312 307 303 302 293 291 294 299 310 310 308 307 297 306
292 296 301 305 308 307 307 299 293 289 289 288 291 289 292 297 308 298 290 288 288 288
287 289 291 293 295 295 292 288 286 284 284 285 286 288 291 293 301 291 286 285 285 286

GFSNIL_sfc_thetae_117.txt.gz
Theta_e
316 326 325 326 327 325 326 328 329 328 326 325 323 322 322 320 320 319 318 318 317 317
314 322 326 326 327 327 329 328 328 327 325 324 323 321 321 320 319 318 317 317 317 318
309 313 326 324 323 326 327 327 327 326 325 323 322 321 320 319 318 317 317 317 316 317
303 311 323 322 322 324 326 325 326 324 322 321 321 320 319 318 317 316 316 316 316 316
303 319 321 321 322 325 324 324 323 321 321 320 319 319 318 316 316 315 315 315 316 315
302 320 320 321 321 324 323 323 323 321 320 319 318 317 317 317 316 316 315 315 315 315
300 317 320 321 319 322 322 321 321 320 320 318 317 317 316 316 315 316 315 316 316 316
300 315 319 320 320 321 321 319 320 321 319 317 316 316 315 315 314 313 313 314 315 316
304 315 317 318 318 319 318 318 318 317 316 315 316 301 301 309 313 312 312 311 311 311
295 316 317 318 318 317 317 317 315 316 316 314 315 298 299 300 312 311 311 310 310 308
291 300 317 317 316 317 316 315 314 314 315 313 303 297 297 297 311 310 310 310 310 309
290 292 313 315 315 316 316 314 308 308 305 299 295 292 296 301 310 308 304 301 298 308
288 289 291 308 314 313 304 296 293 289 289 289 291 290 293 301 306 295 290 287 287 287
286 288 287 291 300 296 291 288 285 284 284 285 286 288 293 296 299 290 286 285 285 285

GFSNIL_sfc_thetae_120.txt.gz
Theta_e
306 308 313 323 324 325 325 326 328 327 328 327 325 324 323 322 321 321 320 319 319 318
302 304 308 312 325 326 326 325 327 328 327 325 324 323 322 321 320 319 319 319 318 317
299 301 304 308 313 325 326 325 326 327 327 324 323 322 321 320 320 318 318 318 317 317
297 299 303 305 310 323 325 326 325 327 326 324 322 321 320 319 318 318 317 316 316 316
296 298 301 305 315 323 324 324 325 327 325 323 322 321 319 318 317 317 315 315 315 315
295 297 299 302 320 322 323 322 325 325 322 321 320 319 319 318 317 316 316 316 315 315
294 296 298 303 315 322 322 322 323 322 321 320 319 318 318 317 316 316 316 316 316 316
293 295 298 304 313 320 321 322 322 320 320 319 317 317 317 316 315 315 314 315 315 316
292 294 296 300 314 319 319 321 321 319 317 316 316 301 302 310 314 314 313 313 314 314
290 291 294 296 315 318 318 318 318 317 316 315 315 299 299 300 313 312 312 311 311 309
288 289 292 295 303 317 317 316 316 315 315 314 307 297 297 297 311 310 310 310 310 309
286 287 290 291 294 317 316 315 315 314 311 306 298 294 295 302 308 307 303 301 297 308
284 285 287 289 290 315 310 299 296 291 292 292 294 292 295 303 304 295 290 288 289 288
283 284 286 288 288 294 292 290 287 285 285 286 287 290 293 296 299 291 286 285 285 286

GFSNIL_sfc_thetae_123.txt.gz
Theta_e
302 304 307 312 318 323 325 326 328 327 328 328 327 324 324 324 323 322 321 319 319 319
299 299 300 304 308 311 324 326 326 326 328 328 326 325 324 323 322 321 320 320 319 319
296 297 298 301 303 307 311 323 324 324 326 326 326 325 324 323 321 320 320 319 318 318
294 295 297 298 301 304 309 313 324 324 324 325 324 323 322 322 320 319 318 318 317 317
294 295 295 297 300 304 308 314 322 325 324 325 323 322 321 320 319 318 317 316 316 316
292 293 294 295 298 302 305 318 321 325 324 324 323 322 321 320 318 318 317 317 316 316
291 291 292 294 297 301 306 318 322 323 324 323 323 322 320 319 317 317 317 316 316 316
290 291 292 294 296 299 305 317 322 322 323 322 321 320 319 318 317 316 315 315 315 316
288 289 290 292 295 298 301 316 320 321 321 319 319 303 303 311 316 315 314 313 313 314
287 287 288 290 293 296 298 313 319 320 320 318 318 300 300 301 316 314 313 313 313 312
285 285 287 289 291 293 297 307 317 318 318 317 314 298 298 298 314 313 312 312 312 311
283 284 285 287 288 291 294 300 316 317 315 314 306 296 296 303 310 309 306 305 305 309
282 283 284 285 287 289 292 304 299 293 298 298 300 294 295 304 304 297 292 290 290 288
282 283 284 284 286 287 288 289 288 287 287 287 291 294 296 297 301 293 288 287 286 286

GFSNIL_sfc_thetae_126.txt.gz
Theta_e
301 303 305 307 310 316 322 324 326 329 330 331 330 328 327 327 326 325 325 323 322 321
298 298 298 299 302 305 309 316 324 324 328 329 329 326 325 325 324 324 324 322 321 320
295 296 296 297 298 301 304 308 311 322 324 327 327 326 325 324 324 322 322 321 320 319
293 294 295 296 297 299 302 304 308 311 321 324 325 325 323 323 322 321 321 320 319 319
293 293 293 294 295 297 299 302 305 312 314 321 323 324 322 321 321 320 319 319 318 318
290 290 290 291 293 295 297 300 304 309 316 319 322 323 322 321 320 320 320 319 318 317
288 288 289 291 292 294 296 298 303 308 318 320 322 323 322 321 320 319 320 318 318 317
288 288 289 290 291 292 295 297 301 306 317 321 323 322 321 320 320 318 317 317 316 316
286 287 287 289 289 291 293 297 300 305 317 321 321 305 303 313 318 317 316 314 315 315
284 284 286 287 288 289 291 294 297 301 316 319 321 301 301 301 318 316 315 314 314 313
282 283 285 286 287 288 290 291 294 299 311 319 318 299 299 298 317 315 315 314 314 313
282 282 284 284 285 287 288 290 293 299 311 317 315 297 297 299 314 312 311 312 312 313
282 282 282 283 284 286 287 289 291 291 293 304 312 295 296 304 310 302 296 293 294 295
281 282 282 283 284 285 285 286 287 287 286 287 288 296 294 298 305 298 292 290 287 287

GFSNIL_sfc_thetae_129.txt.gz
Theta_e
304 307 308 312 314 322 327 329 331 330 331 332 333 333 332 331 332 332 332 332 332 327
302 303 304 306 307 310 310 312 316 327 330 329 331 331 330 329 329 330 330 331 333 330
299 299 301 302 303 305 306 307 310 312 316 325 328 330 329 328 328 327 328 329 329 327
295 296 298 298 299 300 303 305 306 309 312 315 321 326 327 326 326 324 326 327 326 324
294 295 295 296 297 299 300 302 304 306 308 312 316 321 324 324 324 323 322 324 323 321
292 291 293 294 296 297 298 299 302 304 306 310 314 318 322 323 323 322 323 322 321 321
290 290 291 293 293 294 296 297 299 302 305 308 311 318 321 322 322 321 323 321 321 322
288 289 289 290 291 292 293 295 298 300 303 307 310 316 320 321 321 321 322 321 320 322
287 288 288 289 290 291 292 293 294 297 300 304 308 306 303 313 321 320 321 319 318 319
285 286 287 287 288 289 289 291 292 294 297 301 305 303 302 300 322 321 321 320 317 316
284 284 285 286 287 287 288 289 290 292 295 297 302 300 300 298 319 319 321 319 317 316
283 283 283 283 285 286 287 288 289 291 292 293 297 299 298 299 313 317 317 316 315 315
282 282 282 282 283 286 286 287 288 288 289 288 288 289 290 299 313 311 309 306 311 299
282 282 282 282 283 284 284 284 284 285 286 286 286 287 288 292 309 307 299 297 297 293

GFSNIL_sfc_thetae_132.txt.gz
Theta_e
313 320 319 323 329 332 332 335 337 335 334 333 329 332 332 332 332 334 333 333 337 337
308 309 313 312 317 324 328 329 331 332 335 335 333 334 334 333 332 332 332 333 337 336
306 307 308 310 312 313 317 318 318 322 326 323 329 332 333 332 332 330 331 333 333 337
302 304 305 306 308 308 309 310 311 313 316 317 321 326 329 329 329 328 328 329 329 330
300 300 301 302 302 302 306 308 307 310 311 313 315 318 320 325 328 327 326 326 326 326
296 298 298 299 297 300 301 302 306 308 309 311 314 316 318 320 322 326 325 326 325 324
293 293 294 295 296 298 300 300 303 305 307 308 310 313 316 318 320 323 325 326 328 325
290 292 294 295 297 298 298 298 300 301 303 306 308 310 313 314 319 321 324 325 326 325
290 290 290 292 295 296 296 296 296 297 299 301 304 298 297 301 310 321 323 324 323 323
287 288 289 290 292 293 293 295 294 295 296 297 300 295 295 294 303 309 322 325 322 320
287 287 289 288 289 290 291 292 292 293 294 294 295 291 290 289 296 307 319 323 322 320
286 286 287 286 286 288 289 290 290 290 290 289 290 288 288 288 295 308 318 321 321 321
286 286 285 286 286 287 288 289 289 287 287 287 286 287 288 288 293 304 312 311 318 300
285 285 285 286 286 285 285 287 288 287 286 285 285 286 286 287 288 295 299 300 302 304

GFSNIL_sfc_thetae_135.txt.gz
Theta_e
317 330 337 340 342 342 340 338 341 340 336 335 338 333 332 329 325 326 329 333 333 335
310 317 316 318 329 333 333 332 333 332 332 331 334 334 334 333 329 329 330 331 333 333
306 310 312 314 313 316 318 323 327 330 332 332 331 333 336 335 334 333 333 333 334 334
303 306 308 307 307 310 313 315 316 318 321 325 328 330 330 331 333 332 333 334 331 330
300 303 302 302 303 307 308 311 311 313 314 315 317 320 323 326 328 327 327 328 329 328
297 300 299 298 301 304 304 305 308 309 310 311 314 315 317 318 320 323 328 328 326 327
292 294 295 297 299 302 302 303 304 304 305 306 308 311 312 314 316 320 322 325 328 329
291 293 294 296 297 299 300 301 301 299 302 304 304 306 305 307 310 313 317 322 324 327
289 291 293 292 295 294 296 297 298 297 298 298 300 294 292 292 297 301 305 309 314 325
289 289 290 291 291 292 293 295 294 294 294 294 296 290 290 289 291 293 297 302 307 312
289 288 289 290 289 289 291 293 292 292 291 291 291 288 288 287 290 295 299 303 308 310
287 288 287 288 288 289 289 290 290 291 290 289 288 286 287 287 289 292 296 304 311 315
286 287 286 287 286 288 289 288 288 288 289 288 289 286 286 286 287 288 289 293 305 301
285 285 285 286 286 286 286 287 286 286 287 287 287 287 285 285 285 285 284 288 293 301

GFSNIL_sfc_thetae_138.txt.gz
Theta_e
310 315 321 330 331 332 332 335 337 335 336 337 338 335 333 332 330 328 326 323 327 327
307 307 308 317 321 333 335 336 337 338 337 338 337 334 330 327 324 323 323 323 326 328
301 303 304 307 310 316 321 330 332 332 332 333 333 332 329 328 328 327 326 325 326 326
300 300 301 302 305 307 311 312 313 315 317 326 327 327 327 328 329 328 326 326 326 326
295 296 296 298 302 303 305 309 310 311 312 314 316 319 321 324 326 325 325 326 326 326
291 292 294 295 299 301 301 303 304 305 306 307 309 311 313 313 315 315 319 323 324 324
290 290 291 293 295 297 298 299 299 301 302 303 306 301 298 300 301 304 309 314 316 319
289 290 290 291 292 294 296 296 297 297 298 299 298 292 290 291 294 295 298 301 305 309
287 289 290 290 290 292 293 294 294 293 294 295 293 288 288 288 289 291 292 295 298 301
288 288 288 289 290 289 290 292 292 292 291 290 289 287 287 286 288 290 292 294 295 297
286 286 287 287 287 288 289 288 288 289 290 289 288 287 286 285 287 288 291 293 295 298
285 285 285 284 285 286 287 287 287 287 287 286 286 286 284 284 284 286 287 289 291 292
285 285 284 284 284 284 285 284 285 285 285 285 284 285 284 283 283 283 284 285 288 288
285 284 285 283 283 282 282 282 281 282 283 283 283 282 283 283 281 281 282 283 284 285

GFSNIL_sfc_thetae_141.txt.gz
Theta_e
301 302 303 304 310 319 320 326 331 333 336 335 336 336 334 334 333 331 330 325 323 325
297 299 299 303 308 313 312 313 315 329 334 333 334 335 333 332 329 328 327 324 322 323
291 296 297 302 301 303 305 308 310 319 329 331 332 335 332 330 328 325 321 321 320 321
289 293 295 296 300 301 303 304 304 306 328 331 331 332 330 327 324 324 322 322 321 321
289 291 292 293 296 297 299 301 302 302 309 314 313 315 317 316 317 324 324 323 322 322
288 290 290 290 292 294 296 298 299 298 298 297 296 299 300 301 301 302 303 308 317 322
285 288 290 290 291 291 294 293 296 297 295 290 291 290 292 293 294 296 298 300 302 304
287 286 288 289 289 289 289 292 291 293 292 289 288 288 287 287 289 291 293 296 297 299
286 286 287 287 289 288 287 286 287 288 288 285 286 286 286 286 288 289 291 291 294 296
285 285 285 285 285 286 286 286 286 286 286 286 284 285 285 285 286 287 289 290 292 293
285 283 284 282 282 284 284 284 285 285 285 284 284 284 284 284 284 286 287 287 288 290
284 283 282 281 281 282 282 282 283 283 282 281 281 284 284 283 283 283 283 286 287 288
284 283 281 281 280 280 281 280 281 280 280 280 279 283 283 282 281 281 281 284 285 285
283 284 282 281 280 279 279 278 278 278 278 278 279 281 283 282 281 280 279 280 280 280